[[{"header":{"parameterUnit":"m.s-1","parameterCategory":2,"la1":30.2991,"la2":30.254,"lo1":-89.0895,"lo2":-89.0444,"dy":0.0017,"dx":0.0017,"nx":28,"ny":28,"refTime":"2025-11-21T03:00:00:Z","depth":"0","parameterNumber":2,"parameterNumberName":"U-component_of_CURRENTS"},"data":[0,0,0,0,0,0,0,0,0,0,0,0,0,0,0,0,0,0,0,0,0,0,0,0,0,0,0,0,0,0,0,0,0,0,0,0,0,0,0,0,0,0,0,0,0,0,0,0,0,0,0,0,0,0,0,0,0,0,-0.3099,-0.3099,0,-0.3116,-0.3116,-0.3115,-0.3101,-0.3101,-0.3101,-0.3101,-0.3054,-0.3053,-0.3051,0,0,0,0,0,0,0,0,0,0,0,0,0,-0.3007,-0.3008,-0.3099,-0.3099,-0.31,-0.3116,-0.3116,-0.3115,-0.3101,-0.3101,-0.3101,-0.3101,-0.3054,-0.3053,-0.3051,0,0,0,0,0,0,0,0,0,0,0,0,0,-0.3032,-0.3009,-0.3098,-0.3099,-0.31,-0.3116,-0.3116,-0.3115,-0.3101,-0.3101,-0.3101,-0.3101,-0.3055,-0.3053,-0.3051,-0.3042,0,0,-0.3046,-0.3045,0,0,0,0,0,0,0,0,-0.3031,-0.3035,-0.3098,-0.3099,-0.31,-0.3111,-0.3066,-0.309,-0.3101,-0.3094,-0.3101,-0.3101,-0.3071,-0.3068,-0.3064,-0.304,-0.3038,-0.3045,-0.3044,-0.3044,-0.3043,0,0,0,0,0,0,0,-0.3029,-0.3034,-0.3099,-0.3099,-0.31,-0.3083,-0.3087,-0.307,-0.3077,-0.3095,-0.3095,-0.3107,-0.307,-0.3066,-0.3063,-0.3037,-0.3045,-0.3044,-0.3043,-0.3042,-0.2922,-0.292,0,0,0,0,0,0,-0.3042,-0.3033,-0.3099,-0.3101,-0.3071,-0.3086,-0.3089,-0.3103,-0.3079,-0.3077,-0.3107,-0.3106,-0.3069,-0.3065,-0.3061,-0.3017,-0.3044,-0.3042,-0.3041,-0.2924,-0.2922,-0.292,0,0,0,0,0,0,-0.304,-0.3048,-0.3098,-0.3071,-0.3077,-0.3088,-0.3104,-0.3104,-0.3093,-0.309,-0.3086,-0.3097,-0.3068,-0.3063,-0.3013,-0.3017,-0.3041,-0.3039,-0.2927,-0.2924,-0.2921,-0.295,0,0,0,0,0,0,-0.3037,-0.3047,-0.3046,-0.3072,-0.308,-0.3089,-0.3104,-0.3104,-0.3104,-0.3103,-0.308,-0.3076,-0.3068,-0.3015,-0.3011,-0.3015,-0.3038,-0.293,-0.2925,-0.2922,-0.2952,-0.2949,-0.2946,0,0,0,0,0,-0.3034,-0.3032,-0.3046,-0.3053,-0.3083,-0.3088,-0.3088,-0.3092,-0.3104,-0.3085,-0.306,-0.3076,-0.2988,-0.3012,-0.3008,-0.3011,-0.2931,-0.2927,-0.2922,-0.2953,-0.2949,-0.2946,0,0,0,0,0,0,-0.2997,-0.3032,-0.3047,-0.3058,-0.3067,-0.3088,-0.3076,-0.3089,-0.3059,-0.3055,-0.3049,-0.3041,-0.3004,-0.2985,-0.3013,-0.2957,-0.2963,-0.2957,-0.2988,-0.2984,-0.2981,-0.3002,-0.3037,0,0,0,0,0,-0.2992,-0.2992,-0.3027,-0.3032,-0.3038,-0.3058,-0.3059,-0.3067,-0.3057,-0.3046,-0.303,-0.3003,-0.2982,-0.2964,-0.2937,-0.2905,-0.2896,-0.2899,-0.2896,-0.2894,-0.2902,-0.2889,-0.2887,-0.2904,-0.2904,-0.2904,0,0,-0.2979,-0.2999,-0.2999,-0.3022,-0.3031,-0.303,-0.3055,-0.3056,-0.3052,-0.3044,-0.301,-0.2994,-0.2968,-0.2933,-0.2915,-0.2919,-0.2875,-0.2888,-0.2887,-0.2897,-0.2884,-0.2883,-0.2882,-0.2901,-0.2901,-0.2902,0,0,-0.294,-0.2973,-0.2951,-0.2964,-0.2982,-0.3,-0.3001,-0.3015,-0.3013,-0.2984,-0.2982,-0.296,-0.2914,-0.2907,-0.2897,-0.2854,-0.2861,-0.2841,-0.2847,-0.2834,-0.2834,-0.2834,-0.2798,-0.2794,-0.2839,-0.2839,-0.2839,0,-0.2912,-0.2918,-0.2943,-0.2933,-0.2951,-0.2987,-0.298,-0.2984,-0.2975,-0.2979,-0.2966,-0.2926,-0.2907,-0.2895,-0.2877,-0.2855,-0.2837,-0.2876,-0.2836,-0.2836,-0.2835,-0.2798,-0.2794,-0.2839,-0.2839,-0.2839,-0.2839,0,-0.2861,-0.2873,-0.2866,-0.2873,-0.2886,-0.2891,-0.2921,-0.2923,-0.2935,-0.2945,-0.293,-0.2902,-0.2885,-0.2874,-0.2865,-0.2855,-0.2837,-0.2842,-0.2862,-0.2837,-0.2797,-0.2792,-0.2841,-0.284,-0.284,-0.284,0,0,-0.2779,-0.2819,-0.2815,-0.2833,-0.2868,-0.2877,-0.2885,-0.2909,-0.2926,-0.2909,-0.2917,-0.2887,-0.2895,-0.2882,-0.2875,-0.2864,-0.2838,-0.2851,-0.285,-0.2843,-0.279,-0.2693,-0.2678,-0.2843,-0.2843,-0.2842,-0.2757,0,-0.2729,-0.2715,-0.2751,-0.2757,-0.2768,-0.2828,-0.2839,-0.2868,-0.2889,-0.2898,-0.2903,-0.2894,-0.2892,-0.2887,-0.2879,-0.2858,-0.283,-0.286,-0.2791,-0.2789,-0.273,-0.2671,-0.2558,-0.2466,-0.2753,-0.2752,-0.2751,0,-0.2657,-0.2676,-0.2667,-0.274,-0.2749,-0.2754,-0.2816,-0.2831,-0.287,-0.2887,-0.29,-0.2904,-0.2898,-0.289,-0.2851,-0.287,-0.2827,-0.2804,-0.28,-0.2702,-0.2683,-0.2537,-0.2446,-0.2438,-0.2744,-0.2745,-0.2745,0,-0.2588,-0.2621,-0.2623,-0.2642,-0.2711,-0.2728,-0.2765,-0.2817,-0.284,-0.2879,-0.289,-0.2899,-0.2885,-0.2861,-0.2815,-0.2833,-0.2755,-0.2773,-0.2639,-0.2631,-0.2516,-0.2498,-0.2434,-0.2725,-0.2725,-0.2726,-0.2726,0,-0.2527,-0.2529,-0.2593,-0.2598,-0.2616,-0.2685,-0.2707,-0.2753,-0.2808,-0.2819,-0.2874,-0.2868,-0.2877,-0.284,-0.2807,-0.2696,-0.2743,-0.2624,-0.26,-0.2515,-0.2499,-0.2472,-0.2514,-0.2722,-0.2723,-0.2724,-0.2724,0,-0.2427,-0.247,-0.2484,-0.2557,-0.2578,-0.2586,-0.2663,-0.2681,-0.2753,-0.2769,-0.2778,-0.2827,-0.278,-0.2763,-0.2706,-0.2657,-0.2532,-0.2527,-0.2414,-0.2377,-0.2243,-0.2289,-0.2209,-0.2138,-0.2366,-0.2363,-0.2361,0,-0.2369,-0.2359,-0.2426,-0.2432,-0.2458,-0.2495,-0.2518,-0.2622,-0.2649,-0.2726,-0.2717,-0.2706,-0.2655,-0.2547,-0.2462,-0.2358,-0.2393,-0.2206,-0.2218,-0.2199,-0.2235,-0.2285,-0.2236,-0.2068,-0.2064,-0.206,-0.2057,0,-0.2254,-0.227,-0.2283,-0.2305,-0.2327,-0.2359,-0.2407,-0.2427,-0.2539,-0.256,-0.2558,-0.2528,-0.2436,-0.2287,-0.2175,-0.2107,-0.2159,-0.2121,-0.2137,-0.2015,-0.2031,-0.1963,-0.2161,-0.2023,-0.2026,-0.2029,-0.203,-0.2032,-0.2149,-0.2126,-0.2142,-0.2145,-0.2176,-0.2188,-0.2157,-0.2229,-0.2243,-0.2223,-0.2335,-0.2231,-0.2179,-0.1994,-0.1919,-0.1785,-0.1874,-0.1751,-0.1812,-0.1867,-0.1788,-0.1894,-0.1712,-0.1714,-0.1715,-0.1716,-0.1717,0,-0.2009,-0.1985,-0.1983,-0.1983,-0.1951,-0.2023,-0.2042,-0.1974,-0.1922,-0.1921,-0.1896,-0.1875,-0.1754,-0.1711,-0.1613,-0.1524,-0.1498,-0.1507,-0.157,-0.1535,-0.1638,-0.1613,-0.1358,-0.1358,-0.1358,-0.1358,-0.1358,-0.1358,-0.1938,-0.1854,-0.185,-0.1743,-0.1739,-0.1629,-0.1595,-0.1515,-0.1455,-0.1332,-0.1305,-0.1285,-0.1441,-0.1651,-0.155,-0.1457,-0.1448,-0.1394,-0.1439,-0.155,-0.1579,-0.1607,-0.1591,-0.1336,-0.1336,-0.126,-0.126,-0.1259]},{"header":{"parameterUnit":"m.s-1","parameterCategory":2,"la1":30.2991,"la2":30.254,"lo1":-89.0895,"lo2":-89.0444,"dy":0.0017,"dx":0.0017,"nx":28,"ny":28,"refTime":"2025-11-21T03:00:00:Z","depth":"0","parameterNumber":3,"parameterNumberName":"V-component_of_CURRENTS"},"data":[0,0,0,0,0,0,0,0,0,0,0,0,0,0,0,0,0,0,0,0,0,0,0,0,0,0,0,0,0,0,0,0,0,0,0,0,0,0,0,0,0,0,0,0,0,0,0,0,0,0,0,0,0,0,0,0,0,0,-0.0004,-0.0003,0,0.0132,0.0133,0.0135,0.0267,0.0268,0.027,0.0271,0.0446,0.0449,0.0452,0,0,0,0,0,0,0,0,0,0,0,0,0,-0.007,-0.007,-0.0004,-0.0003,-0.0001,0.0131,0.0133,0.0135,0.0267,0.0268,0.027,0.0272,0.0445,0.0448,0.0452,0,0,0,0,0,0,0,0,0,0,0,0,0,0.0003,-0.007,-0.0004,0.0079,0.0087,0.0131,0.0133,0.0136,0.0266,0.0269,0.0271,0.0273,0.0443,0.0448,0.0453,0.0439,0,0,0.0468,0.047,0,0,0,0,0,0,0,0,-0.0001,0.0006,0.0065,0.0073,0.0083,0.0182,0.0174,0.0238,0.0266,0.0201,0.0271,0.0274,0.0358,0.037,0.0394,0.0447,0.0454,0.0468,0.0471,0.0473,0.0475,0,0,0,0,0,0,0,-0.0007,0.0001,0.0052,0.0066,0.0077,0.0136,0.0148,0.0187,0.0268,0.0207,0.0216,0.0226,0.0364,0.0388,0.0399,0.0457,0.0468,0.0472,0.0475,0.0477,0.0468,0.0465,0,0,0,0,0,0,-0.0035,-0.0005,0.0048,0.0056,0.0042,0.0134,0.0149,0.015,0.0267,0.0286,0.0224,0.0232,0.0379,0.0393,0.0405,0.0396,0.0473,0.0478,0.0481,0.0471,0.0467,0.0464,0,0,0,0,0,0,-0.0037,-0.0032,0.0042,0.0028,0.0041,0.0132,0.0134,0.0152,0.0176,0.0279,0.03,0.023,0.0381,0.0398,0.0417,0.0404,0.048,0.0484,0.0475,0.047,0.0466,0.0377,0,0,0,0,0,0,-0.004,-0.0034,-0.0048,0.0025,0.0041,0.0042,0.0132,0.0153,0.0178,0.0189,0.029,0.0309,0.0384,0.0409,0.0422,0.0412,0.0488,0.0479,0.0473,0.0467,0.0384,0.037,0.0358,0,0,0,0,0,-0.0043,-0.0082,-0.005,-0.0044,0.002,0.0039,0.0051,0.0128,0.0175,0.0162,0.023,0.0306,0.038,0.041,0.0426,0.0418,0.0482,0.0475,0.0468,0.039,0.0373,0.0358,0,0,0,0,0,0,-0.0114,-0.007,-0.0034,-0.0055,-0.002,0.006,0.0057,0.0108,0.0153,0.0169,0.0273,0.0294,0.0305,0.035,0.038,0.0387,0.044,0.0436,0.0375,0.036,0.0347,0.0358,0.0492,0,0,0,0,0,-0.014,-0.0157,-0.01,-0.0117,-0.0106,-0.0028,-0.001,0.0038,0.0091,0.0115,0.0184,0.0243,0.0284,0.0313,0.035,0.0356,0.0422,0.0352,0.0339,0.0328,0.034,0.0411,0.0408,0.044,0.044,0.0441,0,0,-0.0172,-0.015,-0.0158,-0.0134,-0.0094,-0.0092,-0.0012,-0.0001,0.0013,0.0123,0.0148,0.0197,0.0269,0.0282,0.029,0.0325,0.0345,0.0319,0.031,0.0329,0.0404,0.0402,0.04,0.0436,0.0436,0.0437,0,0,-0.0245,-0.0226,-0.0261,-0.0241,-0.0203,-0.0156,-0.0163,-0.0099,-0.0061,-0.0045,0.0039,0.0077,0.013,0.0195,0.0232,0.0159,0.0267,0.0154,0.0117,0.0185,0.0185,0.0186,0.0247,0.0255,0.0157,0.0156,0.0156,0,-0.0286,-0.0306,-0.0269,-0.0287,-0.0272,-0.0194,-0.0212,-0.0174,-0.0111,-0.0082,-0.0058,0.0041,0.0098,0.0151,0.0127,0.0139,0.0189,0.0183,0.0175,0.0177,0.0179,0.0243,0.0252,0.0151,0.0152,0.0152,0.0153,0,-0.037,-0.0381,-0.0402,-0.0391,-0.038,-0.0388,-0.0327,-0.0311,-0.0258,-0.02,-0.0154,-0.0076,-0.0007,0.0003,0.0052,0.0088,0.0121,0.0149,0.023,0.0172,0.024,0.0252,0.0144,0.0146,0.0147,0.0149,0,0,-0.0467,-0.0464,-0.0467,-0.0466,-0.043,-0.0427,-0.0417,-0.0373,-0.0346,-0.029,-0.0247,-0.018,-0.0119,-0.0077,-0.001,0.0052,0.0104,0.0101,0.0107,0.0189,0.0253,0.03,0.0318,0.0137,0.0139,0.014,0.0289,0,-0.0536,-0.059,-0.0562,-0.0592,-0.0607,-0.0536,-0.0529,-0.0477,-0.0416,-0.0363,-0.0262,-0.0208,-0.0154,-0.0118,-0.0051,0.0069,0.0131,0.0061,0.0274,0.028,0.0353,0.0332,0.0392,0.0532,0.0301,0.0303,0.0304,0,-0.0616,-0.0636,-0.0686,-0.067,-0.0669,-0.0674,-0.0624,-0.0605,-0.0509,-0.0459,-0.0375,-0.0289,-0.0187,-0.0142,0.0052,0.0004,0.0115,0.0209,0.0218,0.031,0.0349,0.0553,0.0563,0.0741,0.0323,0.0321,0.032,0,-0.069,-0.0715,-0.0753,-0.0751,-0.0731,-0.073,-0.071,-0.0635,-0.0609,-0.051,-0.047,-0.0337,-0.0258,-0.011,0.008,0.0068,0.0301,0.0312,0.0461,0.0466,0.0586,0.0598,0.0824,0.0447,0.0446,0.0446,0.0445,0,-0.0766,-0.0792,-0.0791,-0.0812,-0.0845,-0.08,-0.0804,-0.076,-0.0687,-0.0647,-0.0523,-0.0449,-0.0246,-0.0086,0.0072,0.031,0.03,0.0466,0.0513,0.055,0.0556,0.0772,0.0825,0.0451,0.045,0.0449,0.0448,0,-0.0835,-0.0836,-0.0878,-0.088,-0.0882,-0.0904,-0.0879,-0.0872,-0.0793,-0.0734,-0.0705,-0.0521,-0.0305,-0.0091,0.0172,0.0309,0.0645,0.0605,0.063,0.0677,0.0962,0.1004,0.1273,0.1388,0.079,0.0793,0.0794,0,-0.0875,-0.0906,-0.0939,-0.0969,-0.0973,-0.0992,-0.1,-0.0938,-0.0916,-0.0765,-0.0737,-0.052,-0.0336,0.0064,0.0342,0.0639,0.0768,0.0856,0.0843,0.1002,0.1085,0.1117,0.1195,0.0963,0.0966,0.0968,0.097,0,-0.0942,-0.0951,-0.0985,-0.1054,-0.1082,-0.1106,-0.1105,-0.1106,-0.1009,-0.0905,-0.0732,-0.0567,-0.0181,0.02,0.0569,0.0747,0.0997,0.0915,0.1093,0.1252,0.1293,0.1416,0.0829,0.0992,0.099,0.0988,0.0987,0.0986,-0.0978,-0.1023,-0.1069,-0.1126,-0.1166,-0.1199,-0.1194,-0.1142,-0.1061,-0.0821,-0.0701,-0.0304,0.0105,0.0649,0.0837,0.1259,0.1199,0.1396,0.1439,0.146,0.1565,0.1013,0.1214,0.1214,0.1213,0.1212,0.1211,0,-0.1015,-0.1065,-0.1135,-0.1199,-0.1246,-0.1244,-0.1236,-0.1158,-0.1014,-0.0698,-0.0432,0.0208,0.0661,0.1062,0.1558,0.1783,0.1831,0.1891,0.1968,0.2027,0.1572,0.1574,0.1847,0.1847,0.1846,0.1846,0.1846,0.1846,-0.1031,-0.1109,-0.1148,-0.1237,-0.1277,-0.1265,-0.124,-0.1065,-0.0816,-0.0272,0.0236,0.0579,0.1085,0.1761,0.223,0.2272,0.2471,0.2441,0.254,0.2234,0.2191,0.215,0.2168,0.2561,0.2562,0.301,0.3014,0.3018]}],[{"header":{"parameterUnit":"m.s-1","parameterCategory":2,"la1":30.2991,"la2":30.254,"lo1":-89.0895,"lo2":-89.0444,"dy":0.0017,"dx":0.0017,"nx":28,"ny":28,"refTime":"2025-11-21T03:00:00:Z","depth":"2","parameterNumber":2,"parameterNumberName":"U-component_of_CURRENTS"},"data":[0,0,0,0,0,0,0,0,0,0,0,0,0,0,0,0,0,0,0,0,0,0,0,0,0,0,0,0,0,0,0,0,0,0,0,0,0,0,0,0,0,0,0,0,0,0,0,0,0,0,0,0,0,0,0,0,0,0,-0.2461,-0.2462,0,-0.2508,-0.2509,-0.2509,-0.2488,-0.2487,-0.2486,-0.2485,-0.2483,-0.2484,-0.2485,0,0,0,0,0,0,0,0,0,0,0,0,0,-0.235,-0.2352,-0.2461,-0.2462,-0.2463,-0.2508,-0.2509,-0.2509,-0.2488,-0.2487,-0.2486,-0.2485,-0.2483,-0.2484,-0.2485,0,0,0,0,0,0,0,0,0,0,0,0,0,-0.2395,-0.2353,-0.2461,-0.246,-0.246,-0.2508,-0.2509,-0.2509,-0.2488,-0.2487,-0.2486,-0.2484,-0.2482,-0.2484,-0.2485,-0.252,0,0,-0.2488,-0.2489,0,0,0,0,0,0,0,0,-0.2393,-0.2399,-0.2459,-0.246,-0.2461,-0.2493,-0.2469,-0.2511,-0.2489,-0.2475,-0.2485,-0.2484,-0.2485,-0.2486,-0.2494,-0.252,-0.252,-0.2489,-0.2489,-0.249,-0.249,0,0,0,0,0,0,0,-0.239,-0.2397,-0.2477,-0.246,-0.2461,-0.2456,-0.2461,-0.2477,-0.2484,-0.2476,-0.2475,-0.2485,-0.2484,-0.2493,-0.2494,-0.252,-0.2488,-0.249,-0.249,-0.2491,-0.2559,-0.256,0,0,0,0,0,0,-0.2392,-0.2394,-0.2476,-0.2479,-0.2426,-0.246,-0.2465,-0.2482,-0.2485,-0.2485,-0.2486,-0.2484,-0.2492,-0.2493,-0.2494,-0.2524,-0.249,-0.2491,-0.2492,-0.2557,-0.2559,-0.256,0,0,0,0,0,0,-0.2389,-0.2399,-0.2474,-0.2439,-0.2448,-0.2463,-0.2483,-0.2484,-0.2494,-0.2494,-0.2492,-0.2495,-0.2491,-0.2492,-0.2512,-0.2523,-0.2491,-0.2492,-0.2556,-0.2558,-0.2559,-0.259,0,0,0,0,0,0,-0.2386,-0.2398,-0.2409,-0.244,-0.2451,-0.2508,-0.2484,-0.2486,-0.2503,-0.2501,-0.2501,-0.25,-0.249,-0.2511,-0.2513,-0.2524,-0.2493,-0.2555,-0.2557,-0.2559,-0.2588,-0.2593,-0.2597,0,0,0,0,0,-0.2382,-0.2406,-0.241,-0.242,-0.2467,-0.251,-0.2515,-0.2518,-0.2505,-0.2519,-0.2516,-0.25,-0.2525,-0.2513,-0.2516,-0.2527,-0.2554,-0.2556,-0.2559,-0.2586,-0.2592,-0.2597,0,0,0,0,0,0,-0.2362,-0.2408,-0.2412,-0.2448,-0.2479,-0.2507,-0.2521,-0.2526,-0.2537,-0.2531,-0.252,-0.252,-0.254,-0.2536,-0.2523,-0.2554,-0.2535,-0.2538,-0.2554,-0.256,-0.2564,-0.256,-0.2494,0,0,0,0,0,-0.2366,-0.2393,-0.2436,-0.2462,-0.2481,-0.2502,-0.2519,-0.2527,-0.2543,-0.2546,-0.2547,-0.2548,-0.2555,-0.2558,-0.2567,-0.2591,-0.257,-0.2599,-0.2603,-0.2607,-0.2606,-0.2596,-0.2599,-0.2568,-0.2568,-0.2568,0,0,-0.2362,-0.2393,-0.2405,-0.2459,-0.248,-0.2513,-0.2508,-0.2542,-0.2561,-0.2546,-0.2566,-0.2568,-0.2566,-0.2587,-0.2595,-0.2583,-0.2604,-0.261,-0.2613,-0.261,-0.2599,-0.2602,-0.2604,-0.257,-0.2569,-0.2569,0,0,-0.2371,-0.24,-0.2426,-0.2458,-0.2504,-0.2524,-0.2537,-0.2574,-0.2581,-0.2612,-0.2599,-0.2609,-0.2627,-0.2624,-0.2625,-0.2664,-0.2631,-0.2666,-0.2683,-0.2674,-0.2676,-0.2677,-0.2645,-0.2643,-0.2666,-0.2666,-0.2666,0,-0.2362,-0.2403,-0.2439,-0.2476,-0.2499,-0.253,-0.256,-0.2583,-0.2618,-0.2627,-0.2621,-0.2644,-0.2643,-0.2658,-0.2667,-0.2672,-0.2653,-0.266,-0.2678,-0.2679,-0.268,-0.2647,-0.2645,-0.2668,-0.2668,-0.2667,-0.2667,0,-0.2392,-0.2425,-0.2446,-0.2498,-0.2531,-0.2565,-0.2606,-0.2634,-0.2645,-0.2661,-0.2685,-0.2689,-0.2696,-0.2702,-0.2696,-0.2707,-0.2686,-0.2685,-0.266,-0.2685,-0.2648,-0.2646,-0.267,-0.267,-0.2669,-0.2669,0,0,-0.236,-0.2448,-0.2452,-0.2477,-0.2545,-0.2573,-0.2616,-0.2659,-0.2678,-0.2706,-0.272,-0.274,-0.2738,-0.2738,-0.2734,-0.2729,-0.2717,-0.2712,-0.271,-0.2671,-0.2678,-0.2581,-0.2568,-0.2718,-0.2719,-0.2719,-0.2645,0,-0.2366,-0.2429,-0.2474,-0.2521,-0.2554,-0.2602,-0.2637,-0.2679,-0.2707,-0.2731,-0.274,-0.2754,-0.2753,-0.2753,-0.2752,-0.2732,-0.2713,-0.2736,-0.2666,-0.2664,-0.2569,-0.2564,-0.2385,-0.2297,-0.2642,-0.2641,-0.2641,0,-0.2369,-0.2413,-0.2463,-0.2532,-0.255,-0.2581,-0.2637,-0.2675,-0.2723,-0.2744,-0.2765,-0.2771,-0.2777,-0.2767,-0.274,-0.2755,-0.2716,-0.2695,-0.2692,-0.2588,-0.2562,-0.2331,-0.2278,-0.2635,-0.2636,-0.2636,-0.2637,0,-0.2314,-0.2397,-0.2432,-0.2458,-0.2545,-0.2568,-0.2609,-0.2669,-0.2696,-0.2744,-0.2758,-0.2777,-0.277,-0.2751,-0.2712,-0.2726,-0.2664,-0.2675,-0.2548,-0.254,-0.2366,-0.2342,-0.2639,-0.2639,-0.2639,-0.264,-0.264,0,-0.2295,-0.2318,-0.2408,-0.2425,-0.2457,-0.2533,-0.2567,-0.2615,-0.2675,-0.2693,-0.275,-0.275,-0.2765,-0.2736,-0.2707,-0.2606,-0.2655,-0.2538,-0.2513,-0.237,-0.2349,-0.2632,-0.2632,-0.2637,-0.2637,-0.2638,-0.2639,0,-0.2218,-0.2286,-0.2322,-0.2408,-0.243,-0.2448,-0.2529,-0.2552,-0.2627,-0.265,-0.2662,-0.2716,-0.2676,-0.2666,-0.2619,-0.2573,-0.2507,-0.2455,-0.2275,-0.2229,-0.2391,-0.2394,-0.231,-0.2306,-0.2302,-0.2299,-0.2297,0,-0.2183,-0.2196,-0.2277,-0.229,-0.2323,-0.2369,-0.2396,-0.25,-0.253,-0.2612,-0.2607,-0.2604,-0.2554,-0.2459,-0.238,-0.2284,-0.2385,-0.2078,-0.2075,-0.2372,-0.2357,-0.2366,-0.2373,-0.1852,-0.1846,-0.1842,-0.1838,0,-0.2091,-0.2123,-0.215,-0.2181,-0.221,-0.2247,-0.23,-0.2318,-0.243,-0.2453,-0.2455,-0.2423,-0.2338,-0.2157,-0.2054,-0.1987,-0.2087,-0.1976,-0.232,-0.197,-0.1937,-0.1924,-0.1947,-0.1795,-0.1799,-0.1802,-0.1805,-0.1806,-0.1998,-0.1993,-0.203,-0.2043,-0.2078,-0.2092,-0.2067,-0.2137,-0.2152,-0.2147,-0.2229,-0.2119,-0.2084,-0.1818,-0.1711,-0.1635,-0.1781,-0.1718,-0.1735,-0.1756,-0.1723,-0.1686,-0.149,-0.1492,-0.1494,-0.1496,-0.1498,0,-0.1867,-0.1879,-0.1887,-0.19,-0.1874,-0.1944,-0.1966,-0.191,-0.1863,-0.1898,-0.1862,-0.1654,-0.1518,-0.1491,-0.1296,-0.1255,-0.1261,-0.1213,-0.123,-0.1272,-0.1309,-0.1257,-0.0898,-0.0896,-0.0895,-0.0893,0,0,-0.1797,-0.1759,-0.1765,-0.1679,-0.1682,-0.1593,-0.1564,-0.1512,-0.1491,-0.1406,-0.1358,-0.1441,-0.1446,-0.1184,-0.1111,-0.0972,-0.1114,-0.0919,-0.1399,-0.1461,-0.1496,-0.1594,-0.1559,0,0,0,0,0]},{"header":{"parameterUnit":"m.s-1","parameterCategory":2,"la1":30.2991,"la2":30.254,"lo1":-89.0895,"lo2":-89.0444,"dy":0.0017,"dx":0.0017,"nx":28,"ny":28,"refTime":"2025-11-21T03:00:00:Z","depth":"2","parameterNumber":3,"parameterNumberName":"V-component_of_CURRENTS"},"data":[0,0,0,0,0,0,0,0,0,0,0,0,0,0,0,0,0,0,0,0,0,0,0,0,0,0,0,0,0,0,0,0,0,0,0,0,0,0,0,0,0,0,0,0,0,0,0,0,0,0,0,0,0,0,0,0,0,0,-0.0311,-0.031,0,-0.0224,-0.0223,-0.0222,-0.0171,-0.0171,-0.0171,-0.0171,-0.0023,-0.0019,-0.0015,0,0,0,0,0,0,0,0,0,0,0,0,0,-0.0363,-0.0363,-0.0311,-0.031,-0.0309,-0.0224,-0.0223,-0.0222,-0.0171,-0.0171,-0.0171,-0.0171,-0.0024,-0.002,-0.0015,0,0,0,0,0,0,0,0,0,0,0,0,0,-0.0314,-0.0363,-0.0311,-0.0274,-0.027,-0.0225,-0.0223,-0.0221,-0.0171,-0.0171,-0.0171,-0.017,-0.0026,-0.002,-0.0014,0.0018,0,0,0.0003,0.0006,0,0,0,0,0,0,0,0,-0.0317,-0.0312,-0.0281,-0.0277,-0.0272,-0.0209,-0.0187,-0.0139,-0.0171,-0.0207,-0.0171,-0.017,-0.008,-0.007,-0.0053,0.0025,0.0032,0.0004,0.0007,0.001,0.0011,0,0,0,0,0,0,0,-0.032,-0.0315,-0.0275,-0.028,-0.0274,-0.0239,-0.0232,-0.0178,-0.0144,-0.0204,-0.02,-0.0193,-0.0078,-0.0059,-0.0049,0.0034,0.0004,0.0009,0.0012,0.0015,0.0158,0.0159,0,0,0,0,0,0,-0.0338,-0.0319,-0.0278,-0.0273,-0.0296,-0.0238,-0.0231,-0.0229,-0.0145,-0.0133,-0.0193,-0.0191,-0.0069,-0.0056,-0.0044,-0.0003,0.001,0.0015,0.0018,0.0158,0.0158,0.0159,0,0,0,0,0,0,-0.0339,-0.0335,-0.0281,-0.0294,-0.0285,-0.0238,-0.0236,-0.0227,-0.0209,-0.0138,-0.0125,-0.0185,-0.0068,-0.0052,0.0003,0.0003,0.0018,0.0023,0.0158,0.0158,0.0159,0.008,0,0,0,0,0,0,-0.0341,-0.0336,-0.034,-0.0296,-0.0285,-0.026,-0.0236,-0.0225,-0.0205,-0.0201,-0.0126,-0.0112,-0.0067,-0.0006,0.0009,0.0011,0.0027,0.0157,0.0158,0.0158,0.0083,0.0078,0.0074,0,0,0,0,0,-0.0343,-0.0354,-0.0341,-0.0336,-0.0292,-0.0261,-0.0252,-0.0216,-0.0205,-0.0199,-0.0148,-0.0115,0.0009,-0.0001,0.0016,0.002,0.0157,0.0158,0.0158,0.0084,0.0079,0.0075,0,0,0,0,0,0,-0.038,-0.0348,-0.0333,-0.0334,-0.0302,-0.0253,-0.0246,-0.0221,-0.0177,-0.0173,-0.0107,-0.009,-0.0043,0.0003,-0.001,0.0065,0.0088,0.0092,0.0026,0.0021,0.0017,0.0001,0.0032,0,0,0,0,0,-0.0391,-0.039,-0.0349,-0.035,-0.0338,-0.0293,-0.0276,-0.0252,-0.0208,-0.0189,-0.0135,-0.0077,-0.0026,0.0007,0.0059,0.0103,0.0149,0.0118,0.0114,0.011,0.0109,0.0175,0.0176,0.0162,0.0162,0.0161,0,0,-0.0405,-0.0388,-0.0387,-0.0357,-0.0331,-0.0319,-0.0282,-0.0263,-0.0249,-0.0178,-0.0142,-0.0089,-0.0017,0.0027,0.0053,0.0066,0.0138,0.0111,0.0107,0.0109,0.0175,0.0177,0.0178,0.0162,0.0162,0.0162,0,0,-0.0437,-0.0419,-0.0428,-0.0406,-0.0373,-0.0342,-0.0341,-0.0292,-0.0267,-0.0225,-0.0173,-0.0121,-0.0041,0.0009,0.0045,0.0054,0.0111,0.007,0.0042,0.0104,0.0106,0.0108,0.016,0.0167,0.0071,0.0071,0.0071,0,-0.0456,-0.0461,-0.0425,-0.0426,-0.0414,-0.0359,-0.0363,-0.0327,-0.0265,-0.0242,-0.0224,-0.0106,-0.005,0.0011,0.0011,0.0044,0.0085,0.0049,0.0097,0.01,0.0104,0.0157,0.0166,0.0068,0.0068,0.0068,0.0069,0,-0.0491,-0.0493,-0.0497,-0.048,-0.0461,-0.0455,-0.0405,-0.0378,-0.0341,-0.0298,-0.0234,-0.0154,-0.0085,-0.0058,-0.002,0.0032,0.0055,0.0079,0.0103,0.01,0.0157,0.0167,0.0062,0.0064,0.0065,0.0066,0,0,-0.0541,-0.0526,-0.0528,-0.0532,-0.0491,-0.0481,-0.0456,-0.0414,-0.0397,-0.0326,-0.0292,-0.0202,-0.0156,-0.0112,-0.0052,0.0006,0.006,0.0045,0.005,0.0084,0.0193,0.022,0.0235,0.009,0.0092,0.0093,0.022,0,-0.058,-0.0606,-0.0579,-0.0594,-0.0603,-0.0546,-0.0529,-0.0481,-0.0426,-0.0376,-0.0283,-0.0227,-0.0176,-0.0145,-0.008,0.0027,0.0086,0.0023,0.0202,0.0208,0.0222,0.0248,0.0219,0.0332,0.0231,0.0233,0.0234,0,-0.0623,-0.0636,-0.0666,-0.0658,-0.0655,-0.065,-0.0612,-0.0586,-0.0498,-0.0454,-0.0376,-0.0299,-0.0201,-0.0162,0.0016,-0.0027,0.0072,0.0156,0.0164,0.0225,0.0255,0.0323,0.0355,0.0253,0.0251,0.025,0.0249,0,-0.0686,-0.0694,-0.0724,-0.0721,-0.0701,-0.07,-0.0681,-0.0614,-0.059,-0.0499,-0.0465,-0.034,-0.0271,-0.0133,0.0037,0.0028,0.0236,0.0248,0.0369,0.0372,0.0403,0.0406,0.0373,0.0373,0.0373,0.0373,0.0372,0,-0.0741,-0.0762,-0.0759,-0.0776,-0.0806,-0.0765,-0.077,-0.0729,-0.0663,-0.0629,-0.0513,-0.0447,-0.026,-0.0116,0.0029,0.0235,0.0234,0.0374,0.0413,0.0374,0.0373,0.0348,0.0344,0.0377,0.0376,0.0375,0.0374,0,-0.0802,-0.0799,-0.0836,-0.0836,-0.0839,-0.086,-0.0841,-0.0835,-0.0763,-0.0713,-0.0686,-0.0518,-0.0326,-0.0132,0.0107,0.0228,0.0417,0.049,0.0426,0.0456,0.0511,0.0501,0.0635,0.0637,0.0639,0.064,0.0642,0,-0.0835,-0.0862,-0.0893,-0.0922,-0.0926,-0.0945,-0.0955,-0.0898,-0.0879,-0.0745,-0.072,-0.0529,-0.0368,-0.0014,0.0225,0.0487,0.0485,0.0604,0.0585,0.0516,0.0541,0.0528,0.0515,0.0595,0.0595,0.0596,0.0597,0,-0.0895,-0.0906,-0.0937,-0.1003,-0.1031,-0.1055,-0.1055,-0.1058,-0.097,-0.0887,-0.0737,-0.0594,-0.0258,0.0036,0.0357,0.0504,0.0555,0.0626,0.0594,0.0524,0.0486,0.0507,0.0496,0.0602,0.0602,0.0601,0.0601,0.0601,-0.0932,-0.0975,-0.102,-0.1076,-0.1114,-0.1145,-0.1154,-0.112,-0.1061,-0.091,-0.0765,-0.0514,-0.0242,0.0226,0.0451,0.0647,0.0647,0.0699,0.0694,0.0689,0.0653,0.062,0.0754,0.0754,0.0754,0.0755,0.0755,0,-0.0975,-0.1022,-0.1087,-0.115,-0.1197,-0.1196,-0.12,-0.1167,-0.1081,-0.0907,-0.0716,-0.0385,-0.0051,0.0218,0.0539,0.0736,0.071,0.0757,0.0687,0.0681,0.0676,0.0636,0.0734,0.0735,0.0735,0.0735,0,0,-0.0999,-0.1069,-0.1104,-0.1195,-0.1238,-0.1262,-0.1255,-0.117,-0.1044,-0.0843,-0.0643,-0.0379,-0.0044,0.0179,0.0426,0.0586,0.0576,0.0596,0.0595,0.0477,0.0469,0.063,0.0561,0,0,0,0,0]}],[{"header":{"parameterUnit":"m.s-1","parameterCategory":2,"la1":30.2991,"la2":30.254,"lo1":-89.0895,"lo2":-89.0444,"dy":0.0017,"dx":0.0017,"nx":28,"ny":28,"refTime":"2025-11-21T03:00:00:Z","depth":"4","parameterNumber":2,"parameterNumberName":"U-component_of_CURRENTS"},"data":[0,0,0,0,0,0,0,0,0,0,0,0,0,0,0,0,0,0,0,0,0,0,0,0,0,0,0,0,0,0,0,0,0,0,0,0,0,0,0,0,0,0,0,0,0,0,0,0,0,0,0,0,0,0,0,0,0,0,-0.1707,-0.1708,0,-0.1786,-0.1787,-0.1787,-0.182,-0.182,-0.182,-0.182,-0.1888,-0.1889,-0.1891,0,0,0,0,0,0,0,0,0,0,0,0,0,-0.1588,-0.159,-0.1707,-0.1708,-0.1709,-0.1786,-0.1787,-0.1788,-0.182,-0.182,-0.182,-0.182,-0.1887,-0.1889,-0.1891,0,0,0,0,0,0,0,0,0,0,0,0,0,-0.1649,-0.1591,-0.1707,-0.1736,-0.1739,-0.1786,-0.1787,-0.1788,-0.182,-0.182,-0.182,-0.182,-0.1886,-0.1889,-0.1892,-0.1909,0,0,-0.19,-0.1901,0,0,0,0,0,0,0,0,-0.1646,-0.1653,-0.173,-0.1734,-0.1738,-0.1795,-0.177,-0.1828,-0.182,-0.1788,-0.182,-0.182,-0.1857,-0.1862,-0.1874,-0.1912,-0.1915,-0.19,-0.1902,-0.1903,-0.1904,0,0,0,0,0,0,0,-0.1642,-0.165,-0.1736,-0.1732,-0.1736,-0.1747,-0.1755,-0.1781,-0.182,-0.1791,-0.1793,-0.1805,-0.1858,-0.1872,-0.1876,-0.1916,-0.19,-0.1903,-0.1904,-0.1905,-0.2048,-0.205,0,0,0,0,0,0,-0.1635,-0.1646,-0.1734,-0.1739,-0.1693,-0.1749,-0.1758,-0.1775,-0.182,-0.1827,-0.1805,-0.1806,-0.1867,-0.1873,-0.1879,-0.1966,-0.1903,-0.1906,-0.1907,-0.2046,-0.2048,-0.2051,0,0,0,0,0,0,-0.1632,-0.1643,-0.1731,-0.1695,-0.1707,-0.1751,-0.177,-0.1777,-0.1817,-0.1831,-0.1838,-0.1841,-0.1867,-0.1875,-0.1934,-0.1966,-0.1907,-0.1909,-0.2043,-0.2046,-0.2049,-0.2098,0,0,0,0,0,0,-0.1629,-0.1641,-0.1666,-0.1695,-0.1709,-0.1779,-0.177,-0.1778,-0.1823,-0.1826,-0.1864,-0.1869,-0.1868,-0.193,-0.1936,-0.1969,-0.1911,-0.204,-0.2045,-0.2048,-0.2094,-0.2103,-0.2111,0,0,0,0,0,-0.1624,-0.1654,-0.1666,-0.1678,-0.1737,-0.1781,-0.179,-0.1818,-0.1825,-0.1853,-0.1882,-0.1869,-0.196,-0.1934,-0.1941,-0.1975,-0.2038,-0.2043,-0.2048,-0.209,-0.2101,-0.211,0,0,0,0,0,0,-0.1616,-0.1661,-0.1675,-0.1718,-0.1756,-0.1787,-0.182,-0.1837,-0.1882,-0.1894,-0.1899,-0.1907,-0.1969,-0.1972,-0.1943,-0.203,-0.1996,-0.2003,-0.2026,-0.2036,-0.2044,-0.2032,-0.1914,0,0,0,0,0,-0.1625,-0.166,-0.1701,-0.1738,-0.1761,-0.1796,-0.1823,-0.1845,-0.1882,-0.1903,-0.193,-0.1961,-0.1991,-0.2014,-0.2042,-0.2093,-0.2068,-0.212,-0.2128,-0.2135,-0.2132,-0.213,-0.2137,-0.2066,-0.2066,-0.2066,0,0,-0.1631,-0.1662,-0.1683,-0.1739,-0.1772,-0.1814,-0.1813,-0.1867,-0.1905,-0.1903,-0.1974,-0.1995,-0.2013,-0.2068,-0.2095,-0.2077,-0.2143,-0.2141,-0.2146,-0.214,-0.2136,-0.2142,-0.2148,-0.207,-0.2069,-0.2069,0,0,-0.1654,-0.1692,-0.1728,-0.1766,-0.1825,-0.1848,-0.187,-0.1924,-0.1955,-0.2023,-0.2027,-0.2069,-0.2128,-0.2138,-0.215,-0.2223,-0.2187,-0.2241,-0.2272,-0.2271,-0.2275,-0.2279,-0.225,-0.2251,-0.2244,-0.2244,-0.2244,0,-0.1662,-0.1709,-0.1746,-0.179,-0.1825,-0.1867,-0.1911,-0.1951,-0.2019,-0.2045,-0.2057,-0.2138,-0.2156,-0.2199,-0.2227,-0.2239,-0.2224,-0.2228,-0.2278,-0.2281,-0.2285,-0.2253,-0.2254,-0.2247,-0.2246,-0.2246,-0.2246,0,-0.1701,-0.1752,-0.1779,-0.1846,-0.1889,-0.1937,-0.1991,-0.2044,-0.2088,-0.2118,-0.2188,-0.2217,-0.2255,-0.2275,-0.2276,-0.2315,-0.2291,-0.2286,-0.2244,-0.2294,-0.2259,-0.2258,-0.2251,-0.225,-0.2249,-0.2248,0,0,-0.1678,-0.1786,-0.1797,-0.1836,-0.1923,-0.1957,-0.2032,-0.2096,-0.2137,-0.2207,-0.2249,-0.2312,-0.2322,-0.2336,-0.2343,-0.235,-0.2361,-0.2334,-0.2333,-0.2289,-0.234,-0.2181,-0.2164,-0.2365,-0.2366,-0.2366,-0.2302,0,-0.1698,-0.1782,-0.1833,-0.1913,-0.1956,-0.2021,-0.208,-0.2146,-0.22,-0.2254,-0.2289,-0.2337,-0.2346,-0.2367,-0.2379,-0.237,-0.2363,-0.2377,-0.2312,-0.2309,-0.2148,-0.216,-0.2368,-0.2301,-0.2301,-0.2301,-0.2301,0,-0.1708,-0.1765,-0.1847,-0.1942,-0.1968,-0.2025,-0.2113,-0.2173,-0.2251,-0.2292,-0.2342,-0.2366,-0.24,-0.2396,-0.2395,-0.2406,-0.2377,-0.2361,-0.2358,-0.2189,-0.2149,-0.2245,-0.2299,-0.2299,-0.2299,-0.2299,-0.2299,0,-0.1654,-0.1767,-0.1832,-0.1868,-0.1985,-0.2035,-0.2097,-0.2185,-0.2229,-0.2311,-0.234,-0.2388,-0.2404,-0.24,-0.2378,-0.2392,-0.235,-0.2358,-0.2183,-0.2171,-0.2311,-0.2307,-0.234,-0.234,-0.234,-0.234,-0.234,0,-0.1632,-0.1686,-0.1818,-0.1852,-0.1921,-0.2015,-0.2087,-0.2154,-0.2238,-0.2269,-0.235,-0.2359,-0.2408,-0.2393,-0.2374,-0.2259,-0.2343,-0.2173,-0.2141,-0.2334,-0.2334,-0.2309,-0.2306,-0.2338,-0.2338,-0.2339,-0.2339,0,-0.1555,-0.1649,-0.1724,-0.1857,-0.1899,-0.1947,-0.2068,-0.2107,-0.2205,-0.2244,-0.2268,-0.2335,-0.2305,-0.2316,-0.2289,-0.2221,-0.2152,-0.2089,-0.2272,-0.2254,-0.1975,-0.1977,-0.1883,-0.1876,-0.1871,-0.1867,-0.1863,0,-0.1519,-0.1556,-0.1702,-0.1741,-0.1805,-0.1894,-0.1944,-0.207,-0.2102,-0.2201,-0.2193,-0.221,-0.2229,-0.2048,-0.2094,-0.2015,-0.1997,-0.1948,-0.1981,-0.1948,-0.1928,-0.1937,-0.1946,-0.1855,-0.1853,-0.1852,-0.1851,0,-0.1436,-0.1506,-0.1566,-0.1647,-0.1714,-0.1776,-0.1859,-0.1865,-0.1987,-0.2096,-0.2045,-0.2011,-0.1961,-0.1927,-0.1866,-0.1826,-0.198,-0.1893,-0.1905,-0.1936,-0.1914,-0.1901,-0.1915,-0.1832,-0.1835,-0.1837,-0.1838,0,-0.1364,-0.1383,-0.147,-0.1521,-0.1601,-0.162,-0.1689,-0.1713,-0.1758,-0.1875,-0.1847,-0.1869,-0.1932,-0.1824,-0.178,-0.1713,-0.1695,-0.165,-0.1674,-0.1694,-0.1663,-0.161,-0.1391,0,0,0,0,0,-0.128,-0.1289,-0.1332,-0.1385,-0.1456,-0.1497,-0.1607,-0.1679,-0.1797,-0.1705,-0.1771,-0.1717,-0.1639,-0.1658,-0.1544,-0.1698,-0.1706,-0.1561,-0.167,-0.1731,-0.1752,-0.1734,0,0,0,0,0,0,-0.1224,-0.1266,-0.1284,-0.125,-0.1252,-0.1314,-0.1374,-0.1464,-0.1427,-0.1548,-0.1507,-0.1601,-0.1546,-0.1656,-0.15,-0.1505,-0.1537,-0.1589,-0.1584,-0.1719,-0.1739,-0.1755,-0.1744,0,0,0,0,0]},{"header":{"parameterUnit":"m.s-1","parameterCategory":2,"la1":30.2991,"la2":30.254,"lo1":-89.0895,"lo2":-89.0444,"dy":0.0017,"dx":0.0017,"nx":28,"ny":28,"refTime":"2025-11-21T03:00:00:Z","depth":"4","parameterNumber":3,"parameterNumberName":"V-component_of_CURRENTS"},"data":[0,0,0,0,0,0,0,0,0,0,0,0,0,0,0,0,0,0,0,0,0,0,0,0,0,0,0,0,0,0,0,0,0,0,0,0,0,0,0,0,0,0,0,0,0,0,0,0,0,0,0,0,0,0,0,0,0,0,-0.0256,-0.0255,0,-0.0207,-0.0206,-0.0206,-0.018,-0.018,-0.0181,-0.0181,-0.0074,-0.0071,-0.0068,0,0,0,0,0,0,0,0,0,0,0,0,0,-0.0279,-0.0279,-0.0256,-0.0255,-0.0255,-0.0207,-0.0206,-0.0205,-0.018,-0.018,-0.0181,-0.0181,-0.0075,-0.0071,-0.0068,0,0,0,0,0,0,0,0,0,0,0,0,0,-0.0253,-0.0279,-0.0256,-0.0237,-0.0235,-0.0207,-0.0206,-0.0205,-0.018,-0.018,-0.0181,-0.0181,-0.0076,-0.0072,-0.0067,-0.0039,0,0,-0.0054,-0.0052,0,0,0,0,0,0,0,0,-0.0254,-0.0252,-0.024,-0.0238,-0.0236,-0.0201,-0.0175,-0.0147,-0.018,-0.02,-0.0181,-0.0181,-0.0111,-0.0104,-0.0094,-0.0034,-0.0029,-0.0054,-0.0051,-0.0049,-0.0048,0,0,0,0,0,0,0,-0.0256,-0.0253,-0.0235,-0.024,-0.0237,-0.0215,-0.0211,-0.017,-0.0154,-0.0198,-0.0197,-0.0193,-0.011,-0.0099,-0.0091,-0.0028,-0.0054,-0.005,-0.0047,-0.0046,0.0078,0.0079,0,0,0,0,0,0,-0.0266,-0.0255,-0.0237,-0.0234,-0.0246,-0.0214,-0.0211,-0.0211,-0.0156,-0.0148,-0.0193,-0.0192,-0.0106,-0.0097,-0.0088,-0.0051,-0.0049,-0.0045,-0.0043,0.0078,0.0079,0.0079,0,0,0,0,0,0,-0.0267,-0.0265,-0.0239,-0.0244,-0.0239,-0.0214,-0.0215,-0.021,-0.0202,-0.0152,-0.0143,-0.019,-0.0106,-0.0094,-0.0052,-0.0047,-0.0043,-0.0039,0.0077,0.0078,0.0079,0.0023,0,0,0,0,0,0,-0.0268,-0.0266,-0.0272,-0.0245,-0.0239,-0.0228,-0.0215,-0.0209,-0.02,-0.0198,-0.0147,-0.0137,-0.0105,-0.0059,-0.0048,-0.0041,-0.0036,0.0076,0.0077,0.0079,0.0024,0.0022,0.002,0,0,0,0,0,-0.0269,-0.0279,-0.0272,-0.027,-0.0248,-0.0228,-0.0223,-0.0205,-0.02,-0.0198,-0.0161,-0.0139,-0.0042,-0.0055,-0.0042,-0.0034,0.0075,0.0077,0.0079,0.0025,0.0022,0.002,0,0,0,0,0,0,-0.0292,-0.0276,-0.0269,-0.0273,-0.0255,-0.0225,-0.0224,-0.0209,-0.0179,-0.0178,-0.0131,-0.0118,-0.008,-0.0045,-0.006,0.0008,0.0021,0.0026,-0.0024,-0.0026,-0.0028,-0.0043,-0.0032,0,0,0,0,0,-0.03,-0.0304,-0.028,-0.0284,-0.0278,-0.0251,-0.0242,-0.0229,-0.0199,-0.0187,-0.0149,-0.0104,-0.0062,-0.0037,0.0004,0.0042,0.0076,0.0058,0.0056,0.0054,0.0051,0.0108,0.0111,0.0085,0.0085,0.0084,0,0,-0.0311,-0.0303,-0.0305,-0.0289,-0.0275,-0.0268,-0.0246,-0.0237,-0.0227,-0.0178,-0.0152,-0.0111,-0.0054,-0.0015,0.0006,0.0014,0.0079,0.0056,0.0053,0.0052,0.011,0.0113,0.0115,0.0086,0.0085,0.0085,0,0,-0.0333,-0.0327,-0.0336,-0.0323,-0.0306,-0.0286,-0.0286,-0.0255,-0.0239,-0.0208,-0.017,-0.0127,-0.0064,-0.0022,0.0008,0.0025,0.0065,0.004,0.0021,0.0075,0.0078,0.008,0.0119,0.0125,0.0042,0.0042,0.0042,0,-0.0348,-0.0355,-0.0335,-0.0337,-0.0332,-0.0297,-0.0302,-0.0277,-0.0235,-0.0219,-0.0207,-0.0111,-0.0067,-0.0012,-0.0008,0.0019,0.0051,0.0019,0.0071,0.0074,0.0078,0.0117,0.0125,0.0039,0.0039,0.004,0.004,0,-0.0371,-0.0378,-0.0382,-0.0374,-0.0363,-0.0363,-0.0328,-0.0311,-0.0286,-0.0256,-0.0203,-0.0139,-0.0084,-0.0058,-0.0028,0.0022,0.0036,0.0057,0.0069,0.0076,0.0118,0.0127,0.0035,0.0036,0.0037,0.0038,0,0,-0.0404,-0.0401,-0.0404,-0.0411,-0.0386,-0.0382,-0.0363,-0.0334,-0.0324,-0.027,-0.0245,-0.0166,-0.0133,-0.0096,-0.0046,0.0006,0.0055,0.0036,0.004,0.0061,0.0166,0.0147,0.0156,0.0083,0.0084,0.0086,0.0182,0,-0.043,-0.0454,-0.0438,-0.0454,-0.0463,-0.0428,-0.0415,-0.0383,-0.0344,-0.0308,-0.0232,-0.0188,-0.0145,-0.0121,-0.0062,0.0026,0.0077,0.0026,0.0168,0.0172,0.0144,0.0165,0.009,0.0189,0.0191,0.0193,0.0194,0,-0.0457,-0.0472,-0.05,-0.0503,-0.0504,-0.0506,-0.0486,-0.0467,-0.0403,-0.0371,-0.0309,-0.0249,-0.0165,-0.0131,0.0019,-0.0017,0.0067,0.0137,0.0143,0.0151,0.017,0.0186,0.0211,0.0209,0.0208,0.0207,0.0206,0,-0.0498,-0.0513,-0.0542,-0.0543,-0.0538,-0.0545,-0.0538,-0.0492,-0.0478,-0.041,-0.0387,-0.0282,-0.0228,-0.0108,0.0033,0.0028,0.02,0.0213,0.0277,0.0276,0.0287,0.0284,0.0321,0.0321,0.0321,0.032,0.032,0,-0.0529,-0.0553,-0.057,-0.0587,-0.0622,-0.0597,-0.0614,-0.0587,-0.0543,-0.052,-0.0427,-0.0375,-0.0218,-0.01,0.0024,0.0175,0.0196,0.0276,0.0304,0.0261,0.0254,0.0293,0.0288,0.0324,0.0323,0.0322,0.0322,0,-0.0562,-0.0573,-0.0613,-0.0633,-0.0645,-0.067,-0.0676,-0.0677,-0.0629,-0.0594,-0.0574,-0.044,-0.0286,-0.0126,0.0075,0.0156,0.0306,0.0357,0.029,0.0312,0.0346,0.0338,0.0429,0.0429,0.043,0.043,0.043,0,-0.0578,-0.0605,-0.0659,-0.0694,-0.0709,-0.0742,-0.0761,-0.0729,-0.0717,-0.0622,-0.0599,-0.0455,-0.035,-0.0077,0.0081,0.0305,0.0337,0.0397,0.0379,0.0341,0.036,0.0351,0.0343,0.043,0.043,0.043,0.043,0,-0.061,-0.0636,-0.0671,-0.0748,-0.0789,-0.0822,-0.0839,-0.0837,-0.0779,-0.0739,-0.0598,-0.0447,-0.0276,-0.0072,0.0096,0.026,0.0345,0.04,0.04,0.0384,0.0344,0.036,0.0351,0.0431,0.0431,0.0431,0.0431,0,-0.0633,-0.0672,-0.0728,-0.0787,-0.0848,-0.0878,-0.0884,-0.0843,-0.0815,-0.0696,-0.0648,-0.0444,-0.0322,-0.0093,0.007,0.0215,0.0249,0.0282,0.029,0.0291,0.0216,0.0143,0.0196,0,0,0,0,0,-0.0648,-0.0694,-0.0761,-0.0824,-0.0884,-0.0909,-0.092,-0.0907,-0.0853,-0.0757,-0.0695,-0.0521,-0.026,-0.0139,0.0006,0.0046,0.0247,0.0216,0.0281,0.0435,0.0434,0.0368,0,0,0,0,0,0,-0.066,-0.0727,-0.0761,-0.0837,-0.0884,-0.0934,-0.0941,-0.0906,-0.0835,-0.0757,-0.0608,-0.0507,-0.0251,-0.034,0.0004,0.0049,0.0104,0.0348,0.035,0.0435,0.0434,0.0434,0.0365,0,0,0,0,0]}]]